Flag for Germany Weather past 2 weeks in Halle, Saxony-Anhalt, Germany

Now
39 °F

Passing clouds.


Feels Like: 31 °F
Forecast: 35 / 40 °F
Wind: 14 mph from Northwest

Location: Leipzig-Schkeuditz

Current Time: Jan 27, 2015 at 8:06:54 PM

Latest Report: Jan 27, 2015 at 7:20 PM


Visibility: N/A

Pressure: 30.04 "Hg

Humidity: 81%

Dew point: 34 °F

Location of HalleLocation

Historic Weather in Halle — Graph

°F

Halle temperature yesterday

Maximum temperature yesterday: 39 °F (at 10:50 AM)
Minimum temperature yesterday: 32 °F (at 9:50 PM)
Average temperature yesterday: 35 °F

Past Weeks' High & Low Weather Summary

 TemperatureHumidityPressure
High54 °F (Jan 13, 12:50 PM)100% (Jan 16, 5:50 PM)30.30 "Hg (Jan 16, 5:50 PM)
Low27 °F (Jan 18, 6:50 AM)44% (Jan 13, 5:50 PM)29.59 "Hg (Jan 15, 7:20 PM)
Average37 °F89%29.96 "Hg
* Reported Jan 12 6:20 PM — Jan 27 6:50 PM, Halle, Weather by CustomWeather, © 2014

Note: Actual official high and low records may vary slightly from our data, if they occured in-between our weather recording intervals... More about our weather records

Advertising

Halle weather history for previous 24 hours

 ConditionsComfort  
Time TempWeatherWind HumidityBarometerVisibility
6:50 PM
Jan 27
39 °FPassing clouds.14 mph81%30.04 "HgN/A
6:20 PM39 °FPassing clouds.12 mph75%30.04 "HgN/A
5:50 PM39 °FPassing clouds.15 mph81%30.01 "HgN/A
5:20 PM39 °FPassing clouds.13 mph81%30.01 "HgN/A
4:50 PM39 °FBroken clouds.15 mph81%30.01 "HgN/A
4:20 PM39 °FBroken clouds.15 mph75%30.01 "HgN/A
3:50 PM41 °FPartly sunny.16 mph76%30.01 "HgN/A
3:20 PM41 °FPartly sunny.16 mph76%30.01 "HgN/A
2:50 PM41 °FBroken clouds.18 mph76%29.98 "HgN/A
2:20 PM41 °FBroken clouds.15 mph76%29.98 "HgN/A
1:50 PM39 °FBroken clouds.14 mph81%29.98 "HgN/A
1:20 PM39 °FBroken clouds.16 mph87%29.98 "HgN/A
12:50 PM39 °FPartly sunny.16 mph81%29.98 "HgN/A
12:20 PM39 °FBroken clouds.17 mph81%29.98 "HgN/A
11:50 AM39 °FBroken clouds.16 mph81%29.98 "HgN/A
11:20 AM37 °FBroken clouds.18 mph87%29.98 "HgN/A
10:50 AM37 °FBroken clouds.18 mph87%29.98 "HgN/A
10:20 AM37 °FLight rain. Broken clouds.17 mph87%29.98 "HgN/A
9:50 AM37 °FLight rain. Broken clouds.17 mph87%29.98 "HgN/A
9:20 AM37 °FBroken clouds.17 mph87%29.98 "HgN/A
8:50 AM37 °FBroken clouds.16 mph87%29.98 "HgN/A
8:20 AM37 °FBroken clouds.13 mph87%29.95 "HgN/A
7:50 AM37 °FLight rain. Partly cloudy.18 mph87%29.95 "HgN/A
7:20 AM37 °FLight rain. Passing clouds.18 mph93%29.95 "HgN/A
6:50 AM37 °FPassing clouds.20 mph93%29.95 "HgN/A
6:20 AM37 °FPassing clouds.17 mph93%29.92 "HgN/A
5:50 AM37 °FLight rain. Passing clouds.17 mph93%29.92 "HgN/A
5:20 AM37 °FPassing clouds.17 mph93%29.92 "HgN/A
4:50 AM37 °FLight rain. Passing clouds.17 mph93%29.92 "HgN/A
4:20 AM37 °FLight rain. Passing clouds.16 mph93%29.92 "HgN/A
3:50 AM37 °FLight rain. Passing clouds.17 mph93%29.92 "HgN/A
3:20 AM37 °FPassing clouds.16 mph93%29.92 "HgN/A
2:50 AM37 °FPassing clouds.15 mph93%29.89 "HgN/A
2:20 AM37 °FPassing clouds.16 mph93%29.89 "HgN/A
1:50 AM37 °FPassing clouds.15 mph100%29.89 "HgN/A
1:20 AM36 °FLight rain. Passing clouds.16 mph100%29.89 "HgN/A
12:50 AM36 °FPassing clouds.17 mph100%29.89 "HgN/A
12:20 AM36 °FLight rain. Passing clouds.16 mph100%29.89 "HgN/A
11:50 PM
Jan 26
36 °FLight rain. Passing clouds.17 mph100%29.89 "HgN/A
11:20 PM34 °FLight rain. Mostly cloudy.16 mph100%29.89 "HgN/A
10:50 PM34 °FLight rain. Mostly cloudy.13 mph100%29.92 "Hg5 mi
10:20 PM32 °FSnow. Ice fog.16 mph100%29.92 "Hg3 mi
9:50 PM32 °FRain. Ice fog.16 mph100%29.92 "Hg2 mi
9:20 PM34 °FLight rain. Fog.15 mph100%29.92 "Hg3 mi
8:50 PM34 °FLight rain. Fog.15 mph100%29.92 "Hg3 mi
8:20 PM34 °FLight rain. Fog.16 mph100%29.92 "Hg3 mi
Weather by CustomWeather, © 2014

See weather overviewHow to use our weather pages